TimeHST,TemperatureF,Dew PointF,Humidity,Sea Level PressureIn,VisibilityMPH,Wind Direction,Wind SpeedMPH,Gust SpeedMPH,PrecipitationIn,Events,Conditions,WindDirDegrees,DateUTC
12:54 AM,73.0,66.9,81,30.04,10.0,ENE,9.2,16.1,N/A,,Partly Cloudy,70,2012-12-25 10:54:00
1:54 AM,72.0,66.0,81,30.03,10.0,SSW,3.5,-,N/A,,Clear,200,2012-12-25 11:54:00
2:54 AM,70.0,66.0,87,30.01,10.0,Calm,Calm,-,N/A,,Clear,0,2012-12-25 12:54:00
3:54 AM,69.1,66.0,90,30.00,10.0,Calm,Calm,-,N/A,,Partly Cloudy,0,2012-12-25 13:54:00
4:54 AM,69.1,66.0,90,30.01,10.0,SE,5.8,-,N/A,,Partly Cloudy,140,2012-12-25 14:54:00
5:54 AM,69.1,66.0,90,30.02,10.0,Calm,Calm,-,N/A,,Partly Cloudy,0,2012-12-25 15:54:00
6:54 AM,69.1,66.0,90,30.03,10.0,SSE,4.6,-,N/A,,Clear,150,2012-12-25 16:54:00
7:54 AM,70.0,66.0,87,30.04,10.0,ESE,3.5,-,N/A,,Clear,120,2012-12-25 17:54:00
8:54 AM,73.9,66.9,79,30.04,10.0,NW,5.8,-,N/A,,Mostly Cloudy,310,2012-12-25 18:54:00
9:54 AM,75.9,66.0,71,30.06,10.0,NW,4.6,-,N/A,,Mostly Cloudy,310,2012-12-25 19:54:00
10:54 AM,80.1,64.9,60,30.05,10.0,ESE,5.8,-,N/A,,Mostly Cloudy,110,2012-12-25 20:54:00
11:54 AM,82.0,63.0,52,30.04,10.0,East,10.4,-,N/A,,Mostly Cloudy,90,2012-12-25 21:54:00
12:54 PM,81.0,64.0,56,30.02,10.0,ENE,12.7,19.6,N/A,,Overcast,70,2012-12-25 22:54:00
1:54 PM,79.0,62.1,56,30.00,10.0,East,17.3,28.8,N/A,,Mostly Cloudy,100,2012-12-25 23:54:00
2:54 PM,78.1,64.9,64,30.00,10.0,ENE,16.1,25.3,N/A,,Mostly Cloudy,60,2012-12-26 00:54:00
3:54 PM,77.0,63.0,62,30.00,10.0,ENE,19.6,26.5,N/A,,Scattered Clouds,70,2012-12-26 01:54:00
4:54 PM,75.0,62.1,64,30.00,10.0,ENE,18.4,28.8,N/A,,Partly Cloudy,70,2012-12-26 02:54:00
5:54 PM,73.9,60.1,62,30.00,10.0,ENE,12.7,24.2,N/A,,Partly Cloudy,70,2012-12-26 03:54:00
6:54 PM,73.0,61.0,66,30.01,10.0,East,9.2,-,N/A,,Partly Cloudy,80,2012-12-26 04:54:00
7:54 PM,73.0,63.0,71,30.04,10.0,Variable,3.5,-,N/A,,Overcast,0,2012-12-26 05:54:00
8:54 PM,71.1,62.1,73,30.05,10.0,East,5.8,-,N/A,,Clear,100,2012-12-26 06:54:00
9:54 PM,70.0,62.1,76,30.06,10.0,ENE,4.6,-,N/A,,Scattered Clouds,70,2012-12-26 07:54:00
10:54 PM,66.9,62.1,84,30.07,10.0,SE,4.6,-,N/A,,Clear,140,2012-12-26 08:54:00
11:54 PM,68.0,61.0,78,30.08,10.0,Calm,Calm,-,N/A,,Partly Cloudy,0,2012-12-26 09:54:00